[[{"header":{"parameterUnit":"m.s-1","parameterCategory":2,"la1":30.2991,"la2":30.254,"lo1":-89.0895,"lo2":-89.0444,"dy":0.0017,"dx":0.0017,"nx":28,"ny":28,"refTime":"2024-03-31T21:00:00:Z","depth":"0","parameterNumber":2,"parameterNumberName":"U-component_of_CURRENTS"},"data":[0,0,0,0,0,0,0,0,0,0,0,0,0,0,0,0,0,0,0,0,0,0,0,0,0,0,0,0,0,0,0,0,0,0,0,0,0,0,0,0,0,0,0,0,0,0,0,0,0,0,0,0,0,0,0,0,0,0,-0.2216,-0.2216,0,-0.2201,-0.2201,-0.22,-0.2124,-0.2122,-0.2121,-0.212,-0.2025,-0.2023,-0.2022,0,0,0,0,0,0,0,0,0,0,0,0,0,-0.2109,-0.2111,-0.2216,-0.2216,-0.2216,-0.2201,-0.2201,-0.22,-0.2124,-0.2122,-0.212,-0.2119,-0.2025,-0.2024,-0.2022,0,0,0,0,0,0,0,0,0,0,0,0,0,-0.2126,-0.2112,-0.2216,-0.218,-0.2178,-0.2201,-0.2201,-0.22,-0.2124,-0.2122,-0.212,-0.2118,-0.2026,-0.2024,-0.2022,-0.205,0,0,-0.2016,-0.2015,0,0,0,0,0,0,0,0,-0.2125,-0.213,-0.2185,-0.2183,-0.218,-0.2167,-0.2128,-0.2148,-0.2125,-0.2139,-0.212,-0.2117,-0.207,-0.2064,-0.2059,-0.2046,-0.2042,-0.2016,-0.2015,-0.2014,-0.2013,0,0,0,0,0,0,0,-0.2124,-0.2129,-0.2205,-0.2186,-0.2183,-0.2142,-0.2142,-0.2131,-0.211,-0.2137,-0.2133,-0.2141,-0.2066,-0.2061,-0.2056,-0.204,-0.2016,-0.2014,-0.2013,-0.2012,-0.2122,-0.2126,0,0,0,0,0,0,-0.2143,-0.2129,-0.2205,-0.2205,-0.2153,-0.2146,-0.2146,-0.2169,-0.2112,-0.2103,-0.2142,-0.2137,-0.2066,-0.2059,-0.2053,-0.2155,-0.2014,-0.2012,-0.2011,-0.2118,-0.2123,-0.2127,0,0,0,0,0,0,-0.2141,-0.2151,-0.2206,-0.2169,-0.2174,-0.2152,-0.2176,-0.217,-0.2169,-0.2118,-0.2106,-0.215,-0.2064,-0.2055,-0.207,-0.2148,-0.2011,-0.2009,-0.2113,-0.2119,-0.2125,-0.2314,0,0,0,0,0,0,-0.2139,-0.2151,-0.2168,-0.2172,-0.2177,-0.2247,-0.2179,-0.2171,-0.2179,-0.2172,-0.2121,-0.2109,-0.2062,-0.2074,-0.2069,-0.2143,-0.2008,-0.2108,-0.2116,-0.2123,-0.2303,-0.2326,-0.2346,0,0,0,0,0,-0.2135,-0.2186,-0.2169,-0.2178,-0.2204,-0.225,-0.225,-0.2221,-0.2182,-0.2207,-0.2172,-0.2111,-0.2119,-0.2076,-0.2068,-0.2144,-0.2104,-0.2114,-0.2122,-0.2293,-0.2321,-0.2345,0,0,0,0,0,0,-0.2154,-0.2183,-0.2165,-0.2222,-0.2241,-0.2239,-0.2259,-0.2238,-0.223,-0.2219,-0.2151,-0.2141,-0.2186,-0.2144,-0.2098,-0.2202,-0.2107,-0.2115,-0.2239,-0.2265,-0.2286,-0.229,-0.2006,0,0,0,0,0,-0.2167,-0.2207,-0.2226,-0.227,-0.2285,-0.2271,-0.2281,-0.2272,-0.2269,-0.2262,-0.2231,-0.2211,-0.2221,-0.2223,-0.2215,-0.2267,-0.2189,-0.2317,-0.2338,-0.2357,-0.2359,-0.2306,-0.2321,-0.2157,-0.2157,-0.2157,0,0,-0.2184,-0.2207,-0.2227,-0.2275,-0.228,-0.2349,-0.2272,-0.2313,-0.2373,-0.2255,-0.2316,-0.2279,-0.225,-0.2312,-0.233,-0.2284,-0.2369,-0.2368,-0.2384,-0.2376,-0.2317,-0.2332,-0.2345,-0.2163,-0.2162,-0.2161,0,0,-0.2261,-0.2263,-0.2326,-0.2362,-0.2398,-0.2405,-0.2427,-0.2443,-0.2449,-0.2502,-0.2445,-0.2457,-0.246,-0.2467,-0.2468,-0.2607,-0.2479,-0.2609,-0.2724,-0.2674,-0.2686,-0.2695,-0.263,-0.2632,-0.2625,-0.2626,-0.2626,0,-0.2278,-0.2357,-0.2352,-0.2434,-0.2463,-0.2445,-0.2521,-0.2559,-0.258,-0.2579,-0.2548,-0.2556,-0.2545,-0.261,-0.2674,-0.2657,-0.2583,-0.2626,-0.2699,-0.2706,-0.2712,-0.2643,-0.2642,-0.2636,-0.2635,-0.2633,-0.2633,0,-0.2404,-0.247,-0.2516,-0.2608,-0.2646,-0.2709,-0.2756,-0.2792,-0.2782,-0.2787,-0.2824,-0.2804,-0.2784,-0.2823,-0.2797,-0.286,-0.2778,-0.2723,-0.2624,-0.2739,-0.266,-0.2656,-0.265,-0.2647,-0.2644,-0.2641,0,0,-0.2426,-0.2571,-0.2584,-0.2621,-0.2731,-0.2754,-0.2883,-0.294,-0.2957,-0.3004,-0.3008,-0.3092,-0.3018,-0.3017,-0.2984,-0.2986,-0.2999,-0.2889,-0.2882,-0.2809,-0.2859,-0.2802,-0.279,-0.2934,-0.2934,-0.2934,-0.279,0,-0.2512,-0.2662,-0.2722,-0.2843,-0.2907,-0.2937,-0.3029,-0.308,-0.3091,-0.3099,-0.3108,-0.3098,-0.3115,-0.3071,-0.3096,-0.2991,-0.2994,-0.3041,-0.2771,-0.2763,-0.2685,-0.2787,-0.2673,-0.2535,-0.2785,-0.2784,-0.2783,0,-0.2613,-0.2681,-0.2813,-0.2897,-0.2921,-0.299,-0.303,-0.3112,-0.3161,-0.3157,-0.3174,-0.3132,-0.3166,-0.313,-0.3069,-0.3081,-0.3003,-0.2942,-0.2933,-0.2805,-0.2699,-0.2459,-0.2516,-0.2487,-0.2775,-0.2776,-0.2777,0,-0.2586,-0.2735,-0.2812,-0.2857,-0.2973,-0.2997,-0.3037,-0.3102,-0.3113,-0.3155,-0.3117,-0.3156,-0.31,-0.3061,-0.2989,-0.2993,-0.2876,-0.2842,-0.2732,-0.2724,-0.2539,-0.2516,-0.252,-0.2802,-0.2802,-0.2803,-0.2803,0,-0.266,-0.2712,-0.2783,-0.283,-0.2837,-0.294,-0.2947,-0.3001,-0.3041,-0.3027,-0.3101,-0.3067,-0.3071,-0.3011,-0.2968,-0.2841,-0.2851,-0.2764,-0.2694,-0.2607,-0.2592,-0.2484,-0.2509,-0.2797,-0.2799,-0.28,-0.2801,0,-0.2644,-0.2732,-0.2776,-0.2842,-0.2838,-0.2826,-0.2848,-0.2847,-0.2918,-0.2894,-0.2892,-0.2948,-0.2891,-0.289,-0.2795,-0.2764,-0.262,-0.2626,-0.2531,-0.2456,-0.2334,-0.2374,-0.2288,-0.2224,-0.2465,-0.2463,-0.2462,0,-0.2659,-0.2689,-0.2705,-0.2675,-0.2693,-0.2683,-0.2669,-0.2756,-0.2755,-0.2808,-0.2773,-0.2755,-0.2732,-0.262,-0.2568,-0.2481,-0.2502,-0.2326,-0.2352,-0.2335,-0.2327,-0.2362,-0.2318,-0.2173,-0.2169,-0.2166,-0.2163,0,-0.2612,-0.2606,-0.2605,-0.2541,-0.2505,-0.2476,-0.2471,-0.246,-0.2562,-0.2563,-0.2563,-0.2556,-0.2499,-0.2393,-0.2324,-0.2264,-0.2276,-0.2255,-0.2246,-0.213,-0.2154,-0.2052,-0.2263,-0.2134,-0.2137,-0.2139,-0.2141,-0.2142,-0.2491,-0.2449,-0.2423,-0.2339,-0.2301,-0.2256,-0.2201,-0.2236,-0.2223,-0.222,-0.2314,-0.2275,-0.2252,-0.2146,-0.2089,-0.1959,-0.2043,-0.1901,-0.1954,-0.1994,-0.1947,-0.2113,-0.1912,-0.1914,-0.1915,-0.1916,-0.1917,0,-0.232,-0.229,-0.2215,-0.2125,-0.2027,-0.2072,-0.2038,-0.1985,-0.1938,-0.1991,-0.1985,-0.1976,-0.1875,-0.1866,-0.1771,-0.169,-0.1655,-0.1658,-0.1678,-0.1647,-0.1767,-0.177,-0.1518,-0.1518,-0.1518,-0.1518,-0.1518,-0.1518,-0.2219,-0.2118,-0.2077,-0.1855,-0.1797,-0.1653,-0.1612,-0.1579,-0.1587,-0.1559,-0.1583,-0.165,-0.168,-0.1791,-0.1667,-0.1577,-0.155,-0.1498,-0.1543,-0.1638,-0.1665,-0.1691,-0.17,-0.1437,-0.1437,-0.1337,-0.1337,-0.1337]},{"header":{"parameterUnit":"m.s-1","parameterCategory":2,"la1":30.2991,"la2":30.254,"lo1":-89.0895,"lo2":-89.0444,"dy":0.0017,"dx":0.0017,"nx":28,"ny":28,"refTime":"2024-03-31T21:00:00:Z","depth":"0","parameterNumber":3,"parameterNumberName":"V-component_of_CURRENTS"},"data":[0,0,0,0,0,0,0,0,0,0,0,0,0,0,0,0,0,0,0,0,0,0,0,0,0,0,0,0,0,0,0,0,0,0,0,0,0,0,0,0,0,0,0,0,0,0,0,0,0,0,0,0,0,0,0,0,0,0,0.0397,0.0399,0,0.0551,0.0552,0.0554,0.0622,0.0621,0.0621,0.0621,0.079,0.0795,0.0799,0,0,0,0,0,0,0,0,0,0,0,0,0,0.025,0.0252,0.0397,0.0399,0.0401,0.055,0.0552,0.0555,0.0622,0.0621,0.0621,0.0621,0.0789,0.0794,0.08,0,0,0,0,0,0,0,0,0,0,0,0,0,0.0349,0.0252,0.0396,0.0452,0.0459,0.055,0.0553,0.0555,0.0622,0.0621,0.0621,0.0621,0.0787,0.0793,0.08,0.085,0,0,0.0822,0.0825,0,0,0,0,0,0,0,0,0.0343,0.0354,0.0442,0.0449,0.0456,0.0567,0.0563,0.0654,0.0622,0.056,0.0621,0.0621,0.0717,0.073,0.0759,0.0857,0.0865,0.0822,0.0827,0.083,0.0832,0,0,0,0,0,0,0,0.0336,0.0349,0.0457,0.0444,0.0453,0.05,0.0513,0.0581,0.0638,0.0565,0.057,0.0588,0.0721,0.0752,0.0763,0.0867,0.0822,0.0829,0.0833,0.0836,0.1027,0.1028,0,0,0,0,0,0,0.0314,0.0342,0.0453,0.0462,0.0398,0.0503,0.0517,0.0531,0.0637,0.0653,0.0588,0.0591,0.074,0.0755,0.077,0.0839,0.083,0.0836,0.084,0.1026,0.1027,0.1028,0,0,0,0,0,0,0.031,0.0322,0.0446,0.0406,0.0425,0.0505,0.0521,0.0535,0.0565,0.0655,0.0671,0.0604,0.074,0.076,0.0834,0.0845,0.0839,0.0846,0.1025,0.1027,0.1028,0.0974,0,0,0,0,0,0,0.0305,0.032,0.0315,0.0404,0.0426,0.0493,0.0522,0.0538,0.0576,0.0581,0.0674,0.0689,0.0742,0.0823,0.0841,0.0855,0.0851,0.1024,0.1026,0.1027,0.0974,0.0973,0.0972,0,0,0,0,0,0.0299,0.0294,0.0314,0.0327,0.042,0.0493,0.0509,0.0565,0.0577,0.059,0.0657,0.0686,0.0846,0.083,0.085,0.0867,0.1023,0.1025,0.1027,0.0975,0.0973,0.0972,0,0,0,0,0,0,0.0227,0.0303,0.0327,0.0344,0.041,0.0504,0.0518,0.056,0.0624,0.0625,0.0705,0.0726,0.0792,0.084,0.082,0.0927,0.0937,0.0943,0.089,0.089,0.0888,0.0857,0.0857,0,0,0,0,0,0.0209,0.0223,0.031,0.0322,0.0351,0.0433,0.0466,0.0509,0.058,0.0607,0.0675,0.0747,0.0818,0.0859,0.0924,0.0989,0.0984,0.1011,0.101,0.1009,0.0998,0.1034,0.1034,0.1035,0.1035,0.1035,0,0,0.018,0.0226,0.0232,0.0307,0.0359,0.0397,0.0452,0.0499,0.0535,0.0617,0.0675,0.0743,0.0833,0.0902,0.0936,0.0944,0.0992,0.1011,0.1009,0.0999,0.1036,0.1035,0.1035,0.1036,0.1036,0.1036,0,0,0.0139,0.0176,0.0177,0.0228,0.0304,0.0363,0.0373,0.0467,0.051,0.0581,0.0647,0.0724,0.0827,0.0901,0.095,0.0983,0.0981,0.1,0.0977,0.1012,0.1011,0.1011,0.0935,0.0929,0.1004,0.1004,0.1004,0,0.0102,0.0113,0.0189,0.0212,0.0238,0.034,0.0349,0.0422,0.0528,0.0564,0.0586,0.0748,0.0828,0.0923,0.0938,0.098,0.0956,0.0973,0.1007,0.1007,0.1008,0.0931,0.0925,0.1002,0.1002,0.1002,0.1003,0,0.0071,0.0079,0.0085,0.0142,0.0188,0.021,0.0317,0.0371,0.0431,0.0505,0.0601,0.0717,0.0805,0.0855,0.0912,0.0969,0.0929,0.0993,0.1001,0.1004,0.0923,0.0917,0.0998,0.0999,0.1,0.1001,0,0,-0.0008,0.0045,0.0046,0.0042,0.0143,0.0172,0.0243,0.033,0.0355,0.0482,0.0513,0.0682,0.0736,0.0795,0.0883,0.0937,0.0915,0.096,0.0963,0.0863,0.0896,0.0962,0.0961,0.0981,0.0981,0.0982,0.081,0,-0.0062,-0.0078,-0.0016,-0.0024,-0.0026,0.0084,0.0132,0.0231,0.0318,0.0379,0.0532,0.0595,0.0718,0.0741,0.0825,0.0899,0.0908,0.0949,0.0926,0.0923,0.0969,0.0963,0.1014,0.0877,0.0805,0.0804,0.0803,0,-0.0113,-0.0122,-0.0156,-0.0135,-0.0124,-0.0102,-0.0033,0.0027,0.0169,0.0231,0.0349,0.045,0.0567,0.0652,0.0773,0.0786,0.0823,0.0878,0.0874,0.0958,0.0985,0.0881,0.0869,0.1041,0.0794,0.0795,0.0796,0,-0.0227,-0.0221,-0.0269,-0.0257,-0.0199,-0.0191,-0.0152,-0.0027,0.0008,0.0122,0.0135,0.0308,0.0354,0.048,0.0646,0.0679,0.0739,0.0795,0.0869,0.0868,0.092,0.0927,0.1067,0.0838,0.0838,0.0839,0.0839,0,-0.0314,-0.0347,-0.0337,-0.0357,-0.0407,-0.0319,-0.0333,-0.0256,-0.0173,-0.0143,0.0033,0.0073,0.0319,0.0418,0.0558,0.07,0.0666,0.0844,0.0854,0.0897,0.0904,0.1067,0.1145,0.0832,0.0834,0.0835,0.0836,0,-0.0417,-0.0409,-0.0464,-0.0457,-0.0461,-0.0494,-0.0463,-0.0457,-0.0374,-0.0344,-0.0324,-0.014,0.0009,0.0233,0.0409,0.0564,0.0804,0.0748,0.0738,0.0756,0.102,0.1092,0.1185,0.1293,0.0768,0.0769,0.0769,0,-0.0468,-0.0512,-0.0561,-0.0601,-0.0603,-0.0634,-0.064,-0.0564,-0.055,-0.0457,-0.0456,-0.0317,-0.0157,0.0113,0.0416,0.0633,0.0804,0.0777,0.0905,0.1038,0.1123,0.1167,0.1255,0.0887,0.0889,0.089,0.0892,0,-0.056,-0.0582,-0.0631,-0.0724,-0.0763,-0.0801,-0.0809,-0.083,-0.0726,-0.0688,-0.0602,-0.0482,-0.0173,0.0174,0.0493,0.0639,0.0936,0.0814,0.0983,0.1263,0.1286,0.1393,0.0912,0.0905,0.0903,0.0902,0.0902,0.0901,-0.0618,-0.0691,-0.0756,-0.0838,-0.0887,-0.0932,-0.0956,-0.0935,-0.0913,-0.0801,-0.0699,-0.0472,0.0018,0.0517,0.0693,0.1084,0.1044,0.1206,0.1268,0.1288,0.1478,0.0991,0.1017,0.1017,0.1016,0.1016,0.1015,0,-0.0677,-0.0759,-0.0855,-0.0942,-0.1001,-0.1,-0.1028,-0.101,-0.0968,-0.0813,-0.0671,-0.0138,0.0337,0.0783,0.1336,0.1543,0.1603,0.1627,0.1712,0.1775,0.1361,0.1464,0.1555,0.1555,0.1555,0.1555,0.1555,0.1554,-0.0709,-0.082,-0.088,-0.1002,-0.1056,-0.1097,-0.1104,-0.1053,-0.0934,-0.0635,-0.0325,-0.0061,0.0566,0.144,0.1943,0.1977,0.2179,0.2126,0.2237,0.1976,0.1942,0.191,0.203,0.2238,0.2239,0.2651,0.2655,0.2658]}],[{"header":{"parameterUnit":"m.s-1","parameterCategory":2,"la1":30.2991,"la2":30.254,"lo1":-89.0895,"lo2":-89.0444,"dy":0.0017,"dx":0.0017,"nx":28,"ny":28,"refTime":"2024-03-31T21:00:00:Z","depth":"2","parameterNumber":2,"parameterNumberName":"U-component_of_CURRENTS"},"data":[0,0,0,0,0,0,0,0,0,0,0,0,0,0,0,0,0,0,0,0,0,0,0,0,0,0,0,0,0,0,0,0,0,0,0,0,0,0,0,0,0,0,0,0,0,0,0,0,0,0,0,0,0,0,0,0,0,0,-0.2031,-0.2032,0,-0.2104,-0.2105,-0.2106,-0.2163,-0.2163,-0.2164,-0.2164,-0.2334,-0.2338,-0.2342,0,0,0,0,0,0,0,0,0,0,0,0,0,-0.196,-0.1961,-0.2031,-0.2032,-0.2033,-0.2104,-0.2105,-0.2106,-0.2163,-0.2163,-0.2164,-0.2164,-0.2333,-0.2338,-0.2343,0,0,0,0,0,0,0,0,0,0,0,0,0,-0.2008,-0.1961,-0.2031,-0.2069,-0.2073,-0.2103,-0.2105,-0.2106,-0.2163,-0.2163,-0.2164,-0.2165,-0.2331,-0.2337,-0.2343,-0.2368,0,0,-0.2362,-0.2365,0,0,0,0,0,0,0,0,-0.2005,-0.2011,-0.2062,-0.2066,-0.2071,-0.2124,-0.2142,-0.2198,-0.2162,-0.213,-0.2164,-0.2165,-0.2272,-0.2283,-0.2295,-0.2376,-0.2383,-0.2363,-0.2366,-0.2369,-0.2371,0,0,0,0,0,0,0,-0.2002,-0.2008,-0.2061,-0.2063,-0.2068,-0.2088,-0.2096,-0.2152,-0.2199,-0.2133,-0.2137,-0.2143,-0.2275,-0.2289,-0.23,-0.2385,-0.2362,-0.2368,-0.2372,-0.2374,-0.2537,-0.2538,0,0,0,0,0,0,-0.1989,-0.2005,-0.2059,-0.2063,-0.2038,-0.2089,-0.2097,-0.2107,-0.2196,-0.2209,-0.2142,-0.2145,-0.2278,-0.2292,-0.2306,-0.2435,-0.2369,-0.2375,-0.2378,-0.2537,-0.2537,-0.2538,0,0,0,0,0,0,-0.1987,-0.1993,-0.2056,-0.2035,-0.2044,-0.2089,-0.21,-0.2108,-0.2147,-0.2202,-0.2217,-0.2175,-0.2279,-0.2297,-0.2403,-0.2439,-0.2377,-0.2383,-0.2536,-0.2537,-0.2538,-0.2633,0,0,0,0,0,0,-0.1985,-0.1992,-0.2005,-0.2034,-0.2044,-0.2103,-0.2099,-0.2109,-0.2148,-0.2153,-0.2235,-0.225,-0.2281,-0.2394,-0.2409,-0.2446,-0.2388,-0.2535,-0.2536,-0.2537,-0.2629,-0.2637,-0.2644,0,0,0,0,0,-0.1982,-0.1999,-0.2005,-0.2012,-0.2057,-0.2104,-0.2113,-0.2147,-0.2149,-0.2182,-0.2246,-0.2249,-0.241,-0.2402,-0.2419,-0.2458,-0.2534,-0.2536,-0.2537,-0.2625,-0.2635,-0.2643,0,0,0,0,0,0,-0.1974,-0.2007,-0.2014,-0.204,-0.208,-0.2114,-0.2136,-0.2159,-0.223,-0.2241,-0.2289,-0.231,-0.2409,-0.2413,-0.2401,-0.2499,-0.2459,-0.2465,-0.252,-0.253,-0.2537,-0.2483,-0.2393,0,0,0,0,0,-0.1975,-0.2001,-0.2034,-0.2059,-0.2071,-0.2105,-0.2129,-0.2159,-0.2215,-0.2246,-0.2297,-0.2349,-0.2421,-0.2462,-0.2516,-0.2587,-0.2539,-0.2608,-0.2615,-0.2622,-0.2585,-0.2539,-0.2539,-0.2543,-0.2543,-0.2543,0,0,-0.198,-0.2,-0.2016,-0.206,-0.2081,-0.2124,-0.2123,-0.2169,-0.2205,-0.2255,-0.2325,-0.2392,-0.2447,-0.2534,-0.2573,-0.2549,-0.2605,-0.2624,-0.263,-0.2588,-0.254,-0.254,-0.2539,-0.2544,-0.2544,-0.2543,0,0,-0.1983,-0.2015,-0.2025,-0.2069,-0.2112,-0.2149,-0.2167,-0.2215,-0.2234,-0.2323,-0.2362,-0.245,-0.2543,-0.2591,-0.2628,-0.2699,-0.2652,-0.271,-0.271,-0.2669,-0.2667,-0.2665,-0.2647,-0.2642,-0.2707,-0.2707,-0.2707,0,-0.1979,-0.2016,-0.2041,-0.2068,-0.2111,-0.2162,-0.2201,-0.2231,-0.2314,-0.233,-0.2355,-0.2489,-0.2563,-0.2647,-0.2686,-0.2719,-0.2679,-0.2687,-0.2678,-0.2674,-0.2671,-0.2651,-0.2645,-0.2712,-0.2711,-0.2711,-0.271,0,-0.1997,-0.2039,-0.2054,-0.2112,-0.2157,-0.2216,-0.2257,-0.2306,-0.2348,-0.2376,-0.2457,-0.2548,-0.2619,-0.2665,-0.2718,-0.2738,-0.2717,-0.2702,-0.2656,-0.2676,-0.2655,-0.2647,-0.2719,-0.2717,-0.2716,-0.2714,0,0,-0.1945,-0.2047,-0.2053,-0.2091,-0.2199,-0.2231,-0.2296,-0.2358,-0.2383,-0.2452,-0.2482,-0.2618,-0.264,-0.2677,-0.2736,-0.2716,-0.2718,-0.2701,-0.2696,-0.2684,-0.2627,-0.2572,-0.2558,-0.2693,-0.2692,-0.269,-0.2639,0,-0.1954,-0.2023,-0.2076,-0.216,-0.2205,-0.2286,-0.2335,-0.2395,-0.2448,-0.249,-0.254,-0.2603,-0.2645,-0.27,-0.269,-0.2718,-0.2691,-0.2733,-0.2605,-0.2601,-0.255,-0.2544,-0.2371,-0.2305,-0.2631,-0.2629,-0.2628,0,-0.1941,-0.2003,-0.2082,-0.2185,-0.2204,-0.2262,-0.2355,-0.2403,-0.2468,-0.2501,-0.2552,-0.2588,-0.2635,-0.2641,-0.2627,-0.2646,-0.2631,-0.2623,-0.262,-0.2512,-0.2528,-0.2327,-0.2277,-0.2614,-0.2615,-0.2616,-0.2617,0,-0.1891,-0.1996,-0.2068,-0.2116,-0.2239,-0.2269,-0.233,-0.2403,-0.2431,-0.2493,-0.253,-0.2561,-0.2596,-0.2556,-0.2583,-0.2593,-0.2525,-0.254,-0.2462,-0.246,-0.2252,-0.2234,-0.2468,-0.2468,-0.2468,-0.2468,-0.2468,0,-0.1892,-0.194,-0.2046,-0.2094,-0.2147,-0.2229,-0.2281,-0.2338,-0.2414,-0.2441,-0.2514,-0.2537,-0.2564,-0.2555,-0.2548,-0.2481,-0.2493,-0.2435,-0.2424,-0.2287,-0.2274,-0.2481,-0.2484,-0.2466,-0.2466,-0.2467,-0.2467,0,-0.1831,-0.1915,-0.1986,-0.2104,-0.2126,-0.2155,-0.2249,-0.2281,-0.2362,-0.2404,-0.2423,-0.2507,-0.2493,-0.2505,-0.2467,-0.2437,-0.2383,-0.235,-0.2206,-0.2178,-0.2357,-0.2365,-0.2244,-0.2241,-0.2239,-0.2237,-0.2235,0,-0.1813,-0.1842,-0.1963,-0.1982,-0.2033,-0.2092,-0.2127,-0.2234,-0.2269,-0.2371,-0.2375,-0.2409,-0.2408,-0.2353,-0.2294,-0.2229,-0.231,-0.2038,-0.2021,-0.2322,-0.2325,-0.2337,-0.2348,-0.1808,-0.1803,-0.1799,-0.1796,0,-0.1733,-0.1775,-0.1842,-0.1909,-0.1942,-0.1989,-0.2045,-0.2074,-0.2187,-0.2227,-0.2262,-0.2271,-0.2245,-0.2108,-0.2047,-0.1991,-0.2038,-0.1953,-0.226,-0.1903,-0.1909,-0.1914,-0.1939,-0.1759,-0.1763,-0.1766,-0.1768,-0.1769,-0.166,-0.1675,-0.1746,-0.18,-0.1838,-0.1853,-0.1844,-0.1916,-0.1946,-0.1968,-0.2065,-0.2015,-0.2021,-0.1831,-0.1739,-0.1667,-0.181,-0.1731,-0.1744,-0.1761,-0.173,-0.1732,-0.1545,-0.1548,-0.155,-0.1551,-0.1553,0,-0.1559,-0.1581,-0.1614,-0.167,-0.1665,-0.1725,-0.1754,-0.1723,-0.1704,-0.1754,-0.1754,-0.1597,-0.151,-0.1516,-0.1345,-0.1319,-0.1307,-0.1267,-0.125,-0.1287,-0.132,-0.1267,-0.096,-0.0958,-0.0956,-0.0954,0,0,-0.1494,-0.1482,-0.1503,-0.1453,-0.1492,-0.1426,-0.141,-0.1384,-0.1384,-0.1336,-0.1309,-0.1418,-0.147,-0.1214,-0.1158,-0.1027,-0.1145,-0.0975,-0.1452,-0.1468,-0.1499,-0.1588,-0.1548,0,0,0,0,0]},{"header":{"parameterUnit":"m.s-1","parameterCategory":2,"la1":30.2991,"la2":30.254,"lo1":-89.0895,"lo2":-89.0444,"dy":0.0017,"dx":0.0017,"nx":28,"ny":28,"refTime":"2024-03-31T21:00:00:Z","depth":"2","parameterNumber":3,"parameterNumberName":"V-component_of_CURRENTS"},"data":[0,0,0,0,0,0,0,0,0,0,0,0,0,0,0,0,0,0,0,0,0,0,0,0,0,0,0,0,0,0,0,0,0,0,0,0,0,0,0,0,0,0,0,0,0,0,0,0,0,0,0,0,0,0,0,0,0,0,-0.0257,-0.0256,0,-0.0216,-0.0216,-0.0215,-0.0164,-0.0164,-0.0163,-0.0162,0.0007,0.0011,0.0015,0,0,0,0,0,0,0,0,0,0,0,0,0,-0.027,-0.027,-0.0257,-0.0256,-0.0256,-0.0216,-0.0216,-0.0215,-0.0165,-0.0164,-0.0163,-0.0162,0.0006,0.0011,0.0015,0,0,0,0,0,0,0,0,0,0,0,0,0,-0.0249,-0.027,-0.0257,-0.0227,-0.0224,-0.0217,-0.0216,-0.0215,-0.0165,-0.0164,-0.0163,-0.0162,0.0005,0.001,0.0016,0.003,0,0,0.0034,0.0036,0,0,0,0,0,0,0,0,-0.0251,-0.0249,-0.0232,-0.0229,-0.0226,-0.0195,-0.0158,-0.0127,-0.0165,-0.0186,-0.0162,-0.0161,-0.005,-0.004,-0.0035,0.0038,0.0046,0.0034,0.0038,0.004,0.0042,0,0,0,0,0,0,0,-0.0252,-0.025,-0.024,-0.0231,-0.0228,-0.0208,-0.0204,-0.0152,-0.0121,-0.0184,-0.0181,-0.0178,-0.0047,-0.0041,-0.003,0.0048,0.0034,0.0039,0.0043,0.0045,0.015,0.015,0,0,0,0,0,0,-0.0262,-0.0252,-0.0241,-0.0239,-0.0237,-0.0209,-0.0205,-0.0205,-0.0124,-0.0112,-0.0179,-0.0176,-0.0051,-0.0037,-0.0023,0.0026,0.004,0.0046,0.0049,0.0151,0.015,0.0149,0,0,0,0,0,0,-0.0262,-0.0261,-0.0243,-0.0245,-0.0241,-0.021,-0.0211,-0.0205,-0.0191,-0.0122,-0.0107,-0.017,-0.0049,-0.0032,0.0031,0.0033,0.0048,0.0053,0.0152,0.0151,0.015,0.0109,0,0,0,0,0,0,-0.0263,-0.0262,-0.0267,-0.0246,-0.0241,-0.0244,-0.0212,-0.0205,-0.0192,-0.0187,-0.011,-0.0094,-0.0047,0.0022,0.0036,0.0041,0.0058,0.0153,0.0151,0.015,0.0112,0.0107,0.0103,0,0,0,0,0,-0.0264,-0.0284,-0.0268,-0.0266,-0.0249,-0.0245,-0.0241,-0.0214,-0.0192,-0.0195,-0.0133,-0.0096,0.0023,0.0026,0.0044,0.005,0.0153,0.0152,0.015,0.0113,0.0108,0.0103,0,0,0,0,0,0,-0.0295,-0.028,-0.0262,-0.0276,-0.0261,-0.0237,-0.024,-0.0217,-0.0174,-0.0161,-0.009,-0.007,-0.0019,0.0016,0.0017,0.0072,0.0089,0.0091,0.0055,0.005,0.0046,0.0004,0.0063,0,0,0,0,0,-0.0304,-0.0311,-0.029,-0.0299,-0.0296,-0.0265,-0.0259,-0.0239,-0.0201,-0.0182,-0.0128,-0.0071,-0.0017,0.0018,0.0064,0.0104,0.014,0.0112,0.0108,0.0105,0.0079,0.0129,0.0127,0.0144,0.0144,0.0144,0,0,-0.0317,-0.0311,-0.0313,-0.0306,-0.0291,-0.0295,-0.0259,-0.0255,-0.0257,-0.0167,-0.0146,-0.0079,-0.001,0.0032,0.0056,0.0067,0.0126,0.0103,0.01,0.0075,0.0127,0.0126,0.0124,0.0143,0.0144,0.0144,0,0,-0.0359,-0.0342,-0.0366,-0.0359,-0.0345,-0.032,-0.0319,-0.0292,-0.0281,-0.0248,-0.0184,-0.0116,-0.0047,0.0008,0.0045,0.0043,0.01,0.0054,0.0008,0.0057,0.0056,0.0056,0.0133,0.0139,0.0054,0.0054,0.0054,0,-0.0376,-0.0393,-0.0372,-0.0393,-0.0383,-0.0333,-0.0345,-0.0338,-0.0292,-0.027,-0.0251,-0.0123,-0.0063,0.001,-0.0002,0.0036,0.0074,0.0028,0.0053,0.0053,0.0053,0.0131,0.0139,0.0052,0.0052,0.0052,0.0053,0,-0.0437,-0.0443,-0.0457,-0.0456,-0.0446,-0.0446,-0.0424,-0.0404,-0.0366,-0.0342,-0.0273,-0.0187,-0.0102,-0.0078,-0.0043,-0.0006,0.0028,0.0044,0.0067,0.0049,0.0133,0.0142,0.0049,0.005,0.005,0.0051,0,0,-0.0482,-0.0495,-0.0497,-0.0498,-0.0471,-0.047,-0.0461,-0.0429,-0.0414,-0.0366,-0.0327,-0.0245,-0.0182,-0.0141,-0.0068,-0.0042,0.0007,-0.0017,-0.0014,0.0061,0.0132,0.0153,0.0166,0.0024,0.0025,0.0025,0.0203,0,-0.0524,-0.0573,-0.0557,-0.0574,-0.0584,-0.0526,-0.0524,-0.049,-0.0443,-0.04,-0.0312,-0.0253,-0.0212,-0.0155,-0.012,-0.0021,0.0021,-0.0042,0.0134,0.014,0.0162,0.0173,0.0146,0.03,0.0212,0.0214,0.0215,0,-0.0585,-0.06,-0.0637,-0.0618,-0.0616,-0.0615,-0.0558,-0.0553,-0.0483,-0.0445,-0.0358,-0.0288,-0.0199,-0.0184,-0.0029,-0.0072,0.001,0.0072,0.0081,0.011,0.0175,0.0296,0.032,0.023,0.0229,0.0228,0.0227,0,-0.0632,-0.0647,-0.0671,-0.0671,-0.0654,-0.0642,-0.0615,-0.056,-0.0552,-0.0466,-0.0428,-0.0307,-0.0233,-0.013,0.0003,-0.0009,0.0152,0.0178,0.0282,0.0288,0.0301,0.0305,0.0258,0.0258,0.0258,0.0257,0.0257,0,-0.0685,-0.0701,-0.0698,-0.0718,-0.0727,-0.0693,-0.0684,-0.0644,-0.0583,-0.0566,-0.0455,-0.0399,-0.0233,-0.0112,0.0003,0.0176,0.0176,0.027,0.0324,0.029,0.029,0.0244,0.024,0.0264,0.0263,0.0261,0.026,0,-0.0748,-0.0749,-0.0773,-0.0761,-0.0762,-0.0769,-0.0741,-0.0733,-0.0669,-0.063,-0.0604,-0.0457,-0.0289,-0.0115,0.0078,0.0187,0.0342,0.0396,0.0355,0.0399,0.0454,0.0446,0.056,0.0562,0.0564,0.0566,0.0567,0,-0.0786,-0.0813,-0.0822,-0.0839,-0.0838,-0.084,-0.0843,-0.0786,-0.0772,-0.0668,-0.0651,-0.0483,-0.0349,-0.0034,0.0178,0.0425,0.0398,0.0529,0.049,0.0438,0.0481,0.047,0.0459,0.0523,0.0524,0.0525,0.0525,0,-0.0845,-0.085,-0.087,-0.0911,-0.0926,-0.0938,-0.093,-0.0932,-0.086,-0.0803,-0.0699,-0.0582,-0.0271,0.0002,0.0307,0.043,0.049,0.0549,0.052,0.043,0.0412,0.045,0.044,0.0531,0.053,0.053,0.0529,0.0529,-0.0878,-0.0903,-0.0934,-0.0969,-0.0994,-0.102,-0.1026,-0.0998,-0.0964,-0.0854,-0.0742,-0.0532,-0.0265,0.018,0.0393,0.0581,0.057,0.062,0.0615,0.061,0.0552,0.0535,0.067,0.067,0.0671,0.0671,0.0671,0,-0.0916,-0.0947,-0.0987,-0.1027,-0.1064,-0.1062,-0.1071,-0.1048,-0.0999,-0.0853,-0.0711,-0.0413,-0.009,0.0177,0.0493,0.0681,0.0655,0.0697,0.0634,0.0628,0.0622,0.0562,0.0685,0.0685,0.0686,0.0687,0,0,-0.0938,-0.0986,-0.1005,-0.1073,-0.1103,-0.1131,-0.1133,-0.1078,-0.0968,-0.0816,-0.0643,-0.0401,-0.0069,0.0162,0.0395,0.0558,0.054,0.0561,0.0528,0.0421,0.0414,0.0556,0.0452,0,0,0,0,0]}],[{"header":{"parameterUnit":"m.s-1","parameterCategory":2,"la1":30.2991,"la2":30.254,"lo1":-89.0895,"lo2":-89.0444,"dy":0.0017,"dx":0.0017,"nx":28,"ny":28,"refTime":"2024-03-31T21:00:00:Z","depth":"4","parameterNumber":2,"parameterNumberName":"U-component_of_CURRENTS"},"data":[0,0,0,0,0,0,0,0,0,0,0,0,0,0,0,0,0,0,0,0,0,0,0,0,0,0,0,0,0,0,0,0,0,0,0,0,0,0,0,0,0,0,0,0,0,0,0,0,0,0,0,0,0,0,0,0,0,0,-0.1228,-0.1229,0,-0.1294,-0.1294,-0.1295,-0.1326,-0.1326,-0.1326,-0.1327,-0.1388,-0.139,-0.1391,0,0,0,0,0,0,0,0,0,0,0,0,0,-0.114,-0.1141,-0.1228,-0.1229,-0.123,-0.1293,-0.1294,-0.1295,-0.1326,-0.1326,-0.1326,-0.1327,-0.1388,-0.139,-0.1392,0,0,0,0,0,0,0,0,0,0,0,0,0,-0.1188,-0.1141,-0.1228,-0.1254,-0.1257,-0.1293,-0.1294,-0.1295,-0.1326,-0.1326,-0.1326,-0.1327,-0.1387,-0.139,-0.1392,-0.1404,0,0,-0.1399,-0.14,0,0,0,0,0,0,0,0,-0.1185,-0.1191,-0.1249,-0.1252,-0.1255,-0.1303,-0.1286,-0.1332,-0.1326,-0.1299,-0.1327,-0.1327,-0.136,-0.1365,-0.1375,-0.1407,-0.141,-0.1399,-0.1401,-0.1402,-0.1402,0,0,0,0,0,0,0,-0.1182,-0.1188,-0.1253,-0.125,-0.1254,-0.1266,-0.1273,-0.1295,-0.1327,-0.1301,-0.1304,-0.1313,-0.1362,-0.1373,-0.1377,-0.1411,-0.1399,-0.1401,-0.1403,-0.1404,-0.1525,-0.1527,0,0,0,0,0,0,-0.1175,-0.1185,-0.1251,-0.1255,-0.1221,-0.1267,-0.1275,-0.1287,-0.1327,-0.1334,-0.1313,-0.1314,-0.1369,-0.1374,-0.1379,-0.146,-0.1402,-0.1404,-0.1405,-0.1523,-0.1525,-0.1527,0,0,0,0,0,0,-0.1173,-0.1181,-0.1248,-0.1222,-0.1232,-0.1269,-0.1282,-0.1288,-0.132,-0.1336,-0.1342,-0.1341,-0.1369,-0.1376,-0.1426,-0.146,-0.1405,-0.1407,-0.1521,-0.1524,-0.1526,-0.1581,0,0,0,0,0,0,-0.117,-0.1179,-0.1195,-0.1222,-0.1233,-0.1284,-0.1282,-0.1289,-0.1325,-0.1328,-0.1362,-0.1367,-0.137,-0.1422,-0.1428,-0.1462,-0.1409,-0.1519,-0.1522,-0.1525,-0.1577,-0.1585,-0.1592,0,0,0,0,0,-0.1167,-0.1185,-0.1195,-0.1204,-0.125,-0.1286,-0.1293,-0.1318,-0.1326,-0.1346,-0.1375,-0.1367,-0.1448,-0.1426,-0.1432,-0.1468,-0.1517,-0.1521,-0.1525,-0.1573,-0.1583,-0.1592,0,0,0,0,0,0,-0.1155,-0.119,-0.1203,-0.1231,-0.1263,-0.1292,-0.1315,-0.1332,-0.137,-0.1379,-0.1391,-0.1398,-0.1452,-0.1456,-0.1431,-0.1514,-0.1481,-0.1486,-0.1515,-0.1525,-0.1532,-0.1518,-0.1411,0,0,0,0,0,-0.116,-0.1183,-0.1217,-0.1242,-0.126,-0.1292,-0.1313,-0.1333,-0.1365,-0.1383,-0.1409,-0.1439,-0.1471,-0.1494,-0.1518,-0.1566,-0.156,-0.1593,-0.1601,-0.1608,-0.1601,-0.1631,-0.164,-0.1541,-0.154,-0.154,0,0,-0.1161,-0.1185,-0.1198,-0.1242,-0.1268,-0.1304,-0.1305,-0.1346,-0.1382,-0.1384,-0.1445,-0.1467,-0.1489,-0.1542,-0.1567,-0.1552,-0.1636,-0.1613,-0.1618,-0.1608,-0.1636,-0.1645,-0.1654,-0.1543,-0.1543,-0.1542,0,0,-0.1172,-0.1199,-0.1222,-0.1255,-0.1302,-0.1325,-0.1342,-0.1388,-0.1415,-0.1474,-0.1485,-0.1526,-0.158,-0.1601,-0.1618,-0.1683,-0.1672,-0.1699,-0.1732,-0.1762,-0.1769,-0.1776,-0.1788,-0.1795,-0.1707,-0.1707,-0.1707,0,-0.1175,-0.121,-0.1235,-0.127,-0.1304,-0.1338,-0.1377,-0.1411,-0.147,-0.1492,-0.1502,-0.1583,-0.1605,-0.1659,-0.1688,-0.1699,-0.1709,-0.1694,-0.177,-0.1777,-0.1783,-0.1793,-0.18,-0.171,-0.171,-0.171,-0.1709,0,-0.1199,-0.124,-0.1259,-0.1316,-0.1353,-0.1395,-0.1443,-0.1484,-0.1522,-0.1551,-0.1617,-0.1651,-0.1696,-0.1718,-0.1728,-0.1788,-0.178,-0.1772,-0.1742,-0.1796,-0.1804,-0.181,-0.1715,-0.1714,-0.1713,-0.1712,0,0,-0.1173,-0.126,-0.127,-0.1309,-0.1385,-0.1416,-0.1477,-0.1535,-0.1581,-0.163,-0.1687,-0.1742,-0.1757,-0.1777,-0.1798,-0.1828,-0.1889,-0.1828,-0.1828,-0.1831,-0.195,-0.1805,-0.1798,-0.1902,-0.1903,-0.1904,-0.194,0,-0.1189,-0.1256,-0.1301,-0.1378,-0.1417,-0.1474,-0.1531,-0.1586,-0.1641,-0.1705,-0.1733,-0.1796,-0.1782,-0.1824,-0.185,-0.1887,-0.1909,-0.1879,-0.1904,-0.1904,-0.1762,-0.1801,-0.1909,-0.1944,-0.1946,-0.1947,-0.1948,0,-0.1192,-0.1243,-0.1314,-0.1414,-0.1438,-0.1495,-0.1588,-0.1644,-0.1724,-0.1768,-0.1817,-0.1847,-0.1904,-0.189,-0.1946,-0.1933,-0.1944,-0.1956,-0.1958,-0.1802,-0.1771,-0.1879,-0.1959,-0.1959,-0.1958,-0.1957,-0.1956,0,-0.1144,-0.125,-0.1308,-0.1344,-0.1458,-0.1508,-0.1572,-0.1659,-0.1717,-0.1812,-0.1866,-0.1918,-0.1968,-0.1985,-0.1998,-0.1993,-0.2047,-0.2041,-0.1909,-0.1899,-0.1995,-0.1987,-0.2068,-0.2068,-0.2068,-0.2068,-0.2068,0,-0.1126,-0.1177,-0.1299,-0.1332,-0.142,-0.1499,-0.1599,-0.1663,-0.1767,-0.1827,-0.1897,-0.1943,-0.1999,-0.2027,-0.2025,-0.1973,-0.2063,-0.1909,-0.1897,-0.2019,-0.2013,-0.2,-0.1991,-0.2069,-0.2069,-0.2068,-0.2068,0,-0.1054,-0.1133,-0.1216,-0.1351,-0.14,-0.1461,-0.1616,-0.1677,-0.1781,-0.1865,-0.1898,-0.1987,-0.2009,-0.2031,-0.2068,-0.1995,-0.1973,-0.193,-0.2053,-0.2048,-0.1803,-0.1798,-0.1793,-0.1788,-0.1784,-0.178,-0.1778,0,-0.102,-0.1052,-0.1213,-0.1276,-0.1347,-0.146,-0.1532,-0.1665,-0.172,-0.1863,-0.1879,-0.1954,-0.1987,-0.1915,-0.195,-0.1914,-0.1885,-0.1862,-0.1827,-0.1785,-0.1775,-0.1776,-0.1776,-0.1771,-0.177,-0.1769,-0.1768,0,-0.0957,-0.1023,-0.1094,-0.1219,-0.1318,-0.1414,-0.1521,-0.1556,-0.1684,-0.1804,-0.1815,-0.1816,-0.1834,-0.1824,-0.18,-0.1775,-0.1873,-0.1819,-0.1827,-0.1794,-0.1759,-0.1753,-0.1758,-0.1753,-0.1756,-0.1757,-0.1758,0,-0.0911,-0.0948,-0.1047,-0.115,-0.1265,-0.1319,-0.1401,-0.1461,-0.1529,-0.1672,-0.167,-0.1738,-0.1818,-0.1751,-0.1733,-0.1688,-0.1662,-0.1604,-0.1623,-0.1639,-0.1566,-0.1496,-0.1396,0,0,0,0,0,-0.0851,-0.088,-0.0972,-0.1075,-0.1181,-0.1235,-0.1363,-0.1438,-0.1565,-0.1529,-0.1593,-0.1595,-0.157,-0.1606,-0.1524,-0.1653,-0.1663,-0.155,-0.1606,-0.1674,-0.1691,-0.1615,0,0,0,0,0,0,-0.0816,-0.0877,-0.0929,-0.0977,-0.1024,-0.1115,-0.1185,-0.1277,-0.1265,-0.1397,-0.139,-0.1485,-0.1481,-0.1583,-0.1485,-0.1493,-0.1492,-0.1596,-0.1591,-0.1665,-0.168,-0.1693,-0.1621,0,0,0,0,0]},{"header":{"parameterUnit":"m.s-1","parameterCategory":2,"la1":30.2991,"la2":30.254,"lo1":-89.0895,"lo2":-89.0444,"dy":0.0017,"dx":0.0017,"nx":28,"ny":28,"refTime":"2024-03-31T21:00:00:Z","depth":"4","parameterNumber":3,"parameterNumberName":"V-component_of_CURRENTS"},"data":[0,0,0,0,0,0,0,0,0,0,0,0,0,0,0,0,0,0,0,0,0,0,0,0,0,0,0,0,0,0,0,0,0,0,0,0,0,0,0,0,0,0,0,0,0,0,0,0,0,0,0,0,0,0,0,0,0,0,-0.0238,-0.0238,0,-0.0227,-0.0227,-0.0226,-0.0202,-0.0201,-0.0201,-0.02,-0.0152,-0.0151,-0.015,0,0,0,0,0,0,0,0,0,0,0,0,0,-0.0224,-0.0224,-0.0238,-0.0238,-0.0238,-0.0227,-0.0227,-0.0226,-0.0202,-0.0201,-0.0201,-0.02,-0.0152,-0.0151,-0.015,0,0,0,0,0,0,0,0,0,0,0,0,0,-0.0223,-0.0224,-0.0238,-0.0224,-0.0223,-0.0227,-0.0227,-0.0226,-0.0202,-0.0201,-0.0201,-0.02,-0.0152,-0.0151,-0.015,-0.0155,0,0,-0.0146,-0.0145,0,0,0,0,0,0,0,0,-0.0223,-0.0223,-0.0226,-0.0225,-0.0224,-0.0215,-0.0204,-0.0201,-0.0202,-0.0209,-0.02,-0.02,-0.017,-0.0167,-0.0167,-0.0153,-0.0151,-0.0146,-0.0145,-0.0144,-0.0144,0,0,0,0,0,0,0,-0.0223,-0.0223,-0.0233,-0.0226,-0.0225,-0.0214,-0.0213,-0.0203,-0.0193,-0.0209,-0.0207,-0.0207,-0.0169,-0.0168,-0.0165,-0.015,-0.0146,-0.0144,-0.0144,-0.0143,-0.0138,-0.0139,0,0,0,0,0,0,-0.0227,-0.0224,-0.0233,-0.0233,-0.0222,-0.0215,-0.0214,-0.0218,-0.0194,-0.019,-0.0207,-0.0206,-0.0171,-0.0167,-0.0163,-0.0182,-0.0144,-0.0143,-0.0142,-0.0138,-0.0138,-0.0139,0,0,0,0,0,0,-0.0227,-0.0228,-0.0234,-0.0228,-0.0228,-0.0216,-0.0221,-0.0219,-0.0215,-0.0193,-0.0188,-0.0206,-0.017,-0.0165,-0.0156,-0.0179,-0.0142,-0.0141,-0.0137,-0.0138,-0.0139,-0.021,0,0,0,0,0,0,-0.0226,-0.0228,-0.0235,-0.0228,-0.0228,-0.0244,-0.0222,-0.0219,-0.0216,-0.0214,-0.019,-0.0185,-0.0169,-0.0158,-0.0154,-0.0177,-0.014,-0.0136,-0.0137,-0.0138,-0.0207,-0.0213,-0.0219,0,0,0,0,0,-0.0226,-0.0242,-0.0235,-0.0237,-0.0237,-0.0244,-0.0244,-0.0232,-0.0217,-0.0224,-0.0203,-0.0186,-0.0163,-0.0157,-0.0153,-0.0176,-0.0135,-0.0137,-0.0138,-0.0204,-0.0212,-0.0219,0,0,0,0,0,0,-0.024,-0.0241,-0.0233,-0.0249,-0.0248,-0.0241,-0.0247,-0.0235,-0.0225,-0.0219,-0.0192,-0.0186,-0.0191,-0.0169,-0.0163,-0.0177,-0.0148,-0.0148,-0.0199,-0.0206,-0.0212,-0.0218,-0.0139,0,0,0,0,0,-0.0247,-0.0258,-0.0254,-0.0266,-0.0268,-0.0256,-0.0256,-0.0249,-0.0238,-0.0233,-0.0218,-0.02,-0.0195,-0.0188,-0.018,-0.0183,-0.0127,-0.0195,-0.0201,-0.0206,-0.0207,-0.0139,-0.0138,-0.0144,-0.0144,-0.0144,0,0,-0.0255,-0.0257,-0.0263,-0.027,-0.0267,-0.0285,-0.0255,-0.026,-0.0274,-0.0229,-0.0241,-0.0222,-0.0201,-0.0211,-0.021,-0.0193,-0.0173,-0.0208,-0.0213,-0.0211,-0.014,-0.0139,-0.0138,-0.0145,-0.0145,-0.0145,0,0,-0.0285,-0.028,-0.0301,-0.0306,-0.0308,-0.0305,-0.0307,-0.0302,-0.0298,-0.0304,-0.028,-0.0269,-0.026,-0.0251,-0.0244,-0.0275,-0.0209,-0.0276,-0.0309,-0.0243,-0.0242,-0.024,-0.0156,-0.0146,-0.0276,-0.0276,-0.0276,0,-0.0294,-0.0321,-0.0309,-0.0333,-0.034,-0.0317,-0.0342,-0.0342,-0.0335,-0.0327,-0.0316,-0.0292,-0.0281,-0.0281,-0.0302,-0.029,-0.023,-0.0287,-0.025,-0.0247,-0.0244,-0.0158,-0.0147,-0.028,-0.0279,-0.0279,-0.0279,0,-0.0342,-0.0362,-0.0376,-0.0399,-0.0405,-0.0422,-0.0419,-0.0423,-0.0409,-0.0398,-0.0388,-0.0365,-0.0343,-0.0349,-0.0342,-0.0325,-0.0282,-0.0267,-0.0231,-0.0247,-0.0156,-0.0143,-0.0285,-0.0284,-0.0283,-0.0282,0,0,-0.0363,-0.0403,-0.0408,-0.0424,-0.0439,-0.0447,-0.0471,-0.0475,-0.0471,-0.0462,-0.0445,-0.0454,-0.0418,-0.0408,-0.0387,-0.0346,-0.0283,-0.0307,-0.0302,-0.0223,-0.0113,-0.0128,-0.0114,-0.0257,-0.0255,-0.0254,-0.0054,0,-0.0403,-0.046,-0.0467,-0.0512,-0.0536,-0.0525,-0.0543,-0.0539,-0.0521,-0.05,-0.0466,-0.0444,-0.0447,-0.0426,-0.0392,-0.0306,-0.0252,-0.0337,-0.011,-0.0103,-0.0114,-0.0101,-0.0249,-0.0044,-0.004,-0.0038,-0.0036,0,-0.0449,-0.0477,-0.0536,-0.0557,-0.0564,-0.0588,-0.0586,-0.0599,-0.0567,-0.0543,-0.0511,-0.0467,-0.0419,-0.041,-0.0266,-0.0315,-0.0229,-0.0159,-0.0149,-0.013,-0.0094,-0.0025,-0.001,-0.0013,-0.0014,-0.0016,-0.0018,0,-0.047,-0.0519,-0.0566,-0.0579,-0.0607,-0.0621,-0.0627,-0.0611,-0.0608,-0.0559,-0.0528,-0.0458,-0.0403,-0.0299,-0.0187,-0.0207,-0.0007,-0.0004,0.0072,0.0074,0.0061,0.0057,0.0107,0.0107,0.0106,0.0105,0.0105,0,-0.0509,-0.0543,-0.058,-0.0608,-0.0641,-0.0643,-0.066,-0.0652,-0.0623,-0.0608,-0.0547,-0.0502,-0.0373,-0.0257,-0.0158,-0.0001,0.0028,0.0075,0.012,0.0027,0.0017,0.0072,0.0065,0.0113,0.0111,0.011,0.0109,0,-0.0533,-0.0566,-0.0615,-0.0649,-0.0662,-0.0682,-0.0694,-0.0696,-0.0659,-0.0631,-0.0611,-0.0504,-0.0349,-0.0213,-0.0016,0.0045,0.0194,0.0241,0.015,0.0186,0.0232,0.0219,0.0369,0.037,0.037,0.0371,0.0372,0,-0.0552,-0.0585,-0.0644,-0.0677,-0.07,-0.0726,-0.0745,-0.0725,-0.0717,-0.0635,-0.0615,-0.0465,-0.0384,-0.0096,0.0029,0.0253,0.0255,0.0346,0.0257,0.0228,0.0258,0.0244,0.023,0.0373,0.0373,0.0374,0.0374,0,-0.0578,-0.0606,-0.0644,-0.0712,-0.0751,-0.0779,-0.0794,-0.0786,-0.0749,-0.0713,-0.0592,-0.0453,-0.0275,-0.0088,0.0085,0.0227,0.0293,0.0356,0.0354,0.0271,0.0235,0.0261,0.0247,0.0377,0.0377,0.0376,0.0376,0,-0.0588,-0.0619,-0.0679,-0.0732,-0.0787,-0.0815,-0.0818,-0.0785,-0.0761,-0.0664,-0.0621,-0.0436,-0.0323,-0.0098,0.0055,0.0199,0.0222,0.0249,0.0254,0.0252,0.0128,0.0059,0.0196,0,0,0,0,0,-0.0587,-0.0632,-0.0693,-0.0753,-0.0807,-0.0836,-0.0846,-0.0835,-0.0791,-0.0709,-0.0661,-0.0497,-0.025,-0.0138,0.0007,0.005,0.0229,0.0221,0.0258,0.0394,0.0391,0.0258,0,0,0,0,0,0,-0.0593,-0.0654,-0.0692,-0.0759,-0.0801,-0.085,-0.0858,-0.0831,-0.0769,-0.0705,-0.0567,-0.048,-0.0238,-0.0334,0.0004,0.0048,0.0087,0.0343,0.0345,0.0396,0.0393,0.039,0.0253,0,0,0,0,0]}]]